GFSMA_sfc_temp_174.txt.gz
Temp
56 56 57 54 54 57 60 62 64 65 67 68 68 67 68 69 69 69 68 65 68 73 76 77 77 76 76 75 75 74 74 73 73 73 72 72 72 72 72 72 72 72 73
55 56 56 56 56 55 55 56 59 61 63 64 66 67 67 68 69 69 69 70 67 70 74 76 77 77 77 76 76 75 74 73 73 73 73 72 72 72 72 72 72 72 72
56 55 55 55 55 56 55 54 55 57 59 62 62 64 66 67 67 67 68 66 67 66 70 75 76 76 76 77 77 76 74 73 73 73 73 73 72 72 72 72 72 72 72
57 55 54 54 55 56 55 53 53 54 54 56 58 60 62 63 65 66 66 67 66 68 68 70 73 75 75 76 77 77 76 74 73 73 73 73 72 72 72 72 72 72 72
57 54 53 53 55 54 54 54 54 52 52 52 55 55 58 60 62 65 65 66 66 65 65 66 66 69 71 73 76 77 77 76 74 73 72 72 72 72 72 72 72 72 72
55 53 53 53 54 53 52 53 52 53 52 51 57 57 54 56 59 60 62 64 64 66 64 64 64 66 65 70 73 75 75 75 74 72 72 72 72 72 72 73 72 72 73
54 52 52 52 52 51 51 53 52 52 52 53 50 52 52 54 56 58 61 62 63 63 64 63 63 64 64 65 68 71 73 74 74 73 72 72 72 72 73 73 73 72 73
53 54 52 51 51 51 51 51 51 51 51 53 49 48 46 51 53 56 57 59 60 62 62 63 63 62 63 63 63 65 67 71 73 74 73 72 72 72 73 73 72 72 73
52 52 52 51 51 51 51 50 50 50 49 53 52 49 47 45 51 56 60 60 58 58 60 61 62 62 62 63 63 63 63 65 70 72 72 73 72 72 72 72 72 71 73
51 52 52 52 51 52 51 51 55 51 50 49 52 56 53 52 47 48 53 54 59 61 63 62 62 63 62 63 61 61 61 63 67 70 71 72 73 73 73 72 72 71 72
51 52 52 51 51 52 55 53 50 49 50 49 48 50 51 52 54 50 49 50 54 59 60 60 61 61 61 61 61 61 61 63 66 68 70 71 72 72 72 72 71 70 68
50 50 52 51 52 55 55 54 50 49 49 49 50 51 52 50 48 50 49 50 51 54 57 59 59 60 61 61 60 59 60 62 65 67 69 70 71 70 71 71 71 71 70
49 49 51 51 53 55 56 53 50 49 49 49 49 50 54 54 54 53 52 51 50 52 53 55 57 56 60 60 60 57 58 60 62 65 69 71 69 68 68 68 69 69 68
52 53 54 55 55 55 55 50 49 49 49 49 49 50 53 54 55 54 53 52 48 49 49 52 55 56 57 57 58 57 59 58 59 62 65 65 64 63 63 63 64 64 64
53 55 55 55 54 54 53 50 49 49 49 49 49 50 51 54 55 56 55 54 51 46 46 50 52 55 56 56 55 57 57 56 59 59 59 58 58 58 57 57 57 58 58
51 52 54 54 54 54 53 52 48 49 49 49 51 50 49 50 51 54 54 53 53 51 48 52 53 53 54 57 55 55 55 53 56 57 56 55 55 54 53 54 54 55 55
50 52 52 53 53 53 53 52 50 49 47 47 48 49 51 51 50 50 53 54 54 53 51 52 51 52 53 51 52 53 53 51 51 55 53 53 54 54 53 53 53 53 54
49 51 50 52 52 52 52 51 50 51 49 46 47 47 47 51 50 51 50 49 48 49 48 46 50 49 49 50 50 49 52 53 49 53 53 52 52 53 53 53 52 52 52
47 48 49 49 50 50 51 51 50 50 50 50 52 49 48 47 46 46 46 46 46 49 47 46 46 48 48 48 48 48 47 46 50 50 51 51 51 52 52 51 50 50 50
47 46 46 46 46 46 46 47 49 49 49 50 51 51 51 50 49 49 51 51 49 48 47 46 48 48 49 50 48 43 42 43 43 46 47 48 49 50 50 50 48 48 48
46 46 45 45 44 45 49 45 46 47 48 49 50 50 50 47 47 48 49 47 47 47 47 47 47 48 46 44 42 43 42 41 41 41 41 40 42 45 46 47 47 47 47
44 43 43 43 43 46 49 49 47 43 46 47 47 48 49 46 47 48 47 47 46 42 41 41 42 43 42 41 41 39 41 39 38 39 35 36 40 42 44 44 47 47 47
42 42 42 42 42 42 47 49 48 43 42 42 43 44 46 47 46 46 47 45 45 45 44 39 41 38 39 38 38 35 33 34 34 34 32 32 35 35 40 40 43 46 45
40 40 40 41 40 42 47 48 47 41 40 40 41 41 41 42 45 45 44 42 41 38 38 39 37 35 35 34 33 32 31 30 31 34 31 26 30 30 32 33 44 44 43
39 39 40 40 39 39 45 46 45 39 38 39 40 40 40 38 42 45 39 38 36 36 42 42 41 42 42 40 36 31 26 25 26 28 29 27 27 27 28 30 38 42 41
39 39 39 39 41 39 44 46 45 38 36 37 39 39 45 39 42 43 37 35 35 34 34 34 33 36 34 35 36 31 28 21 23 23 29 24 28 28 23 28 29 30 30

GFSMA_sfc_temp_177.txt.gz
Temp
53 53 53 52 52 52 53 53 55 58 60 62 65 67 68 68 68 67 67 65 67 70 73 76 77 77 76 75 75 74 74 73 73 73 73 72 72 72 72 72 72 72 73
53 53 53 53 53 52 53 52 53 54 56 58 60 63 64 65 67 68 66 67 67 68 70 74 76 77 77 76 76 75 74 73 73 73 73 73 72 72 72 72 72 72 72
54 53 53 52 53 53 53 52 53 53 53 55 55 58 60 61 63 65 66 67 67 66 67 70 74 76 76 77 77 76 75 74 73 73 73 72 72 72 72 72 72 72 72
54 52 52 52 53 53 53 51 51 51 51 51 51 53 55 58 60 61 62 64 67 66 66 67 68 73 75 76 77 77 76 74 73 72 72 72 72 72 72 72 72 72 72
54 51 51 51 52 52 51 52 51 50 49 50 52 53 53 54 57 61 59 61 62 65 65 65 65 65 67 73 76 77 76 75 74 72 72 72 72 72 72 72 72 72 72
53 52 51 51 52 51 50 51 50 51 50 49 54 54 51 52 54 54 57 60 60 62 63 63 63 64 64 67 71 75 75 75 73 72 72 71 72 72 72 72 72 72 72
52 51 50 50 51 50 49 51 50 50 49 50 48 50 50 52 53 53 54 56 58 61 61 62 62 63 63 65 66 70 72 74 74 72 72 72 72 72 72 72 72 72 72
51 52 50 50 50 49 50 50 49 48 49 50 47 46 46 48 50 56 54 57 57 58 59 61 61 61 61 62 63 65 66 70 72 73 72 72 72 72 72 73 72 73 73
51 50 50 50 50 50 49 50 49 49 47 49 49 48 46 47 50 52 56 55 59 58 60 59 60 63 62 60 62 62 63 65 67 70 71 73 72 72 72 72 73 73 72
50 50 51 50 50 50 49 50 53 49 48 46 48 53 50 48 44 44 50 52 57 59 60 60 58 59 61 61 61 60 61 63 66 69 69 72 73 73 73 72 72 72 71
50 50 51 50 50 50 50 52 50 48 48 47 47 47 47 47 48 45 44 48 51 56 58 59 59 57 59 61 61 60 60 63 66 68 70 71 71 71 71 69 70 70 70
49 50 50 50 51 51 52 55 49 48 48 48 48 47 48 47 46 48 47 48 48 52 55 59 58 58 59 60 59 57 59 61 64 67 69 70 70 69 70 70 70 69 69
51 49 49 50 50 52 55 54 48 48 48 47 47 48 49 51 53 53 51 50 47 49 52 56 56 57 59 58 59 55 57 59 61 64 67 70 67 66 66 66 66 66 65
53 52 54 51 51 51 52 53 48 48 49 47 47 48 49 50 53 54 52 51 48 46 50 52 54 54 56 57 56 56 57 58 60 62 63 62 61 60 60 60 59 60 60
51 50 52 51 50 51 52 52 51 47 47 47 47 48 48 49 50 51 54 53 51 47 46 49 50 55 54 54 54 55 54 56 57 57 57 57 55 55 55 55 56 56 57
48 49 49 50 51 53 53 52 51 50 46 47 49 47 48 48 49 49 50 51 50 49 48 50 54 54 54 55 53 52 52 52 55 55 53 54 54 53 53 54 54 54 55
48 48 49 48 49 50 50 52 51 51 48 46 46 46 47 48 50 50 49 50 51 51 49 52 53 52 51 50 50 50 50 49 50 53 53 53 54 54 53 53 53 53 54
47 48 47 48 48 48 49 49 49 50 49 49 50 46 46 50 46 47 47 47 47 48 46 45 50 51 49 49 48 47 50 50 47 52 52 52 53 53 53 53 52 52 51
46 46 46 45 45 46 46 46 46 47 50 50 50 50 50 50 50 47 46 45 45 48 45 44 44 46 46 46 46 45 45 43 48 49 51 51 52 52 52 51 50 49 49
45 45 45 45 45 44 45 44 44 45 49 49 50 50 50 50 48 48 50 50 51 49 48 46 44 45 48 48 47 43 41 41 42 45 46 47 49 50 50 50 48 48 48
45 44 43 43 43 44 46 44 44 43 44 47 49 50 50 47 47 48 48 47 47 46 46 46 46 48 45 44 43 43 42 41 41 40 40 38 40 43 45 47 47 47 48
43 42 42 42 42 45 48 49 47 42 42 42 43 44 46 47 47 48 48 47 46 43 40 39 42 40 40 37 38 39 39 39 37 38 34 34 39 37 41 43 45 46 46
41 40 40 41 40 41 47 48 48 42 41 40 41 41 42 45 44 45 47 46 45 45 44 38 41 41 41 35 34 33 32 31 32 32 31 30 34 32 35 38 42 46 44
39 39 39 40 39 41 46 47 48 42 39 39 39 40 39 40 41 44 42 43 42 38 38 38 36 35 34 33 32 32 30 30 30 32 30 25 28 29 30 32 44 43 43
37 37 39 39 38 39 44 46 45 39 38 37 38 39 38 38 42 45 38 36 36 37 42 42 41 41 42 40 36 31 27 25 26 29 28 27 26 26 27 29 37 40 40
38 38 38 37 40 38 43 45 44 38 36 36 37 37 43 40 43 44 37 34 34 36 34 34 33 37 34 35 37 31 29 22 23 23 29 24 24 24 21 27 28 29 29

GFSMA_sfc_temp_183.txt.gz
Temp
62 63 63 63 62 61 61 61 62 62 63 64 66 66 68 69 70 71 72 65 67 69 71 73 74 75 75 76 76 75 74 73 74 73 73 73 73 73 73 73 72 73 73
61 61 62 62 62 62 62 60 60 61 61 62 63 64 65 65 67 68 70 71 66 67 70 72 74 74 74 75 76 75 74 73 74 73 73 73 73 73 73 72 72 73 73
60 59 60 60 61 61 60 60 61 61 60 61 61 62 63 65 65 66 67 68 69 65 66 70 71 72 74 74 74 75 75 73 73 73 73 73 73 72 73 72 72 72 73
59 59 59 60 60 60 60 60 59 59 59 59 59 61 61 62 63 64 65 66 67 68 67 66 67 69 71 72 73 74 74 74 72 72 72 72 72 72 72 72 72 72 72
58 58 58 59 59 59 60 59 60 58 57 58 59 61 61 61 61 63 63 65 66 66 67 65 63 64 66 68 71 73 74 73 72 72 72 72 72 72 72 72 71 72 72
57 57 58 58 58 58 59 59 58 59 58 58 58 59 59 60 61 62 62 64 65 66 67 67 67 67 63 65 67 70 72 73 73 72 71 70 70 71 72 72 72 72 72
57 57 57 57 58 57 58 58 58 57 58 58 55 57 58 59 60 61 61 62 64 64 65 66 66 67 68 65 65 67 68 71 72 72 71 69 68 69 69 72 71 72 72
56 57 56 56 57 57 57 57 56 56 57 58 54 52 51 58 59 62 62 61 62 62 64 65 66 66 66 67 66 64 65 67 69 72 72 70 67 68 68 70 71 71 72
56 55 56 56 56 57 57 56 56 55 54 56 56 54 50 50 53 59 61 62 62 62 63 64 65 66 66 66 65 64 62 63 66 69 72 72 69 68 68 69 70 70 71
56 55 55 56 56 56 56 57 58 56 54 53 56 57 55 53 50 51 58 59 60 62 62 63 64 65 65 64 62 60 59 61 64 67 70 72 71 71 70 68 68 70 70
56 56 55 55 55 56 56 56 56 55 55 54 53 53 52 53 53 48 47 55 61 63 63 63 63 63 64 64 63 61 58 61 65 68 70 72 70 70 70 68 68 68 68
57 57 55 56 56 56 56 57 55 55 55 54 54 53 51 50 50 49 50 52 54 59 62 63 61 62 63 62 60 56 58 61 62 66 68 68 67 69 68 68 67 66 67
56 56 56 56 56 56 56 56 54 54 54 53 53 53 54 52 52 51 50 50 52 58 60 63 62 61 62 61 60 55 56 59 62 64 68 67 67 66 67 67 67 66 65
56 56 55 56 56 55 55 55 55 54 54 53 52 53 53 55 54 52 52 50 50 54 58 58 62 60 59 59 56 55 58 56 58 60 61 61 61 61 62 62 62 62 62
53 54 54 54 54 54 54 54 54 54 53 52 53 52 52 54 54 54 52 52 50 48 52 58 58 58 57 56 54 59 57 54 55 56 56 56 57 57 57 58 58 59 59
52 52 53 52 53 53 53 53 54 55 53 53 53 52 52 53 54 54 54 52 52 50 48 54 58 58 59 58 54 57 55 53 53 55 54 54 54 54 55 55 56 57 57
52 51 52 51 52 52 52 51 52 52 53 53 54 52 52 53 53 54 53 53 53 50 48 53 56 58 57 57 56 56 55 56 55 54 54 54 54 54 54 54 54 54 54
52 51 51 51 51 51 51 50 49 51 50 51 52 51 51 53 53 54 53 52 51 52 49 48 53 55 55 55 54 53 53 53 54 52 53 53 53 53 53 52 52 51 51
50 51 50 49 49 49 49 49 49 49 49 50 51 51 52 52 52 52 51 51 51 51 50 47 48 53 54 55 53 51 51 51 51 49 50 51 52 52 52 52 51 50 49
50 49 49 49 48 48 48 48 48 48 48 49 50 50 51 51 51 52 52 51 51 49 49 48 48 49 50 52 50 48 48 49 48 47 48 48 48 49 51 50 49 48 48
49 49 48 47 48 47 48 48 47 48 47 47 48 49 49 48 46 49 49 50 49 47 47 47 46 47 47 47 47 47 47 48 45 44 46 45 48 48 46 47 47 47 47
47 47 46 46 47 47 47 48 48 47 47 46 46 48 48 46 47 48 48 49 48 47 46 44 44 43 45 43 42 43 43 43 43 42 42 43 45 46 43 46 45 46 47
45 45 45 45 45 46 46 48 48 48 46 46 46 46 46 47 46 47 47 47 48 47 47 46 45 43 43 44 40 41 41 41 42 40 41 41 41 42 43 43 42 45 45
44 44 44 44 44 45 46 47 47 48 46 46 45 45 45 45 45 45 45 45 45 45 45 44 44 44 44 43 42 41 40 39 39 38 39 37 37 39 40 42 42 44 43
42 43 43 43 42 44 44 46 46 45 44 44 44 44 44 43 44 45 44 42 42 42 43 44 43 42 42 41 40 39 37 36 38 38 37 38 37 37 37 39 42 43 40
41 41 41 42 42 43 44 45 46 44 42 43 44 43 43 43 44 45 44 42 40 42 41 41 41 42 43 42 40 38 38 34 35 34 36 35 34 34 35 36 38 39 39

GFSMA_sfc_temp_186.txt.gz
Temp
72 72 72 72 72 72 72 71 71 72 72 74 74 75 75 76 77 78 79 68 68 69 71 72 73 74 74 74 75 75 75 74 73 73 73 73 73 73 73 73 73 73 73
70 69 70 71 71 71 71 71 70 70 70 71 71 72 73 74 74 75 76 77 68 68 69 71 73 73 74 75 75 74 73 73 73 73 73 73 73 73 73 73 73 73 73
68 67 68 68 69 69 69 69 70 70 69 70 69 70 71 72 72 72 73 74 74 67 67 69 70 71 72 73 74 74 74 73 72 72 72 73 72 73 73 73 73 73 73
67 66 66 67 67 67 67 68 68 66 68 68 68 69 70 70 70 70 71 72 73 73 71 68 67 68 69 71 73 74 74 73 72 72 72 72 72 72 72 72 73 72 72
66 65 66 66 66 66 66 66 66 66 65 66 66 68 69 69 68 70 70 71 71 71 73 69 65 65 65 67 69 71 73 73 73 72 71 72 72 72 72 72 72 72 72
65 64 65 65 65 65 66 66 65 66 66 65 65 66 67 68 70 69 69 70 70 70 71 71 72 72 65 66 67 69 70 71 71 72 72 71 71 70 71 72 72 72 72
64 64 65 65 65 65 65 65 64 63 64 65 64 65 67 67 67 68 69 69 69 69 69 70 71 73 73 67 68 68 68 69 69 70 71 71 71 69 67 68 71 71 71
63 64 64 64 64 64 65 64 64 62 64 64 59 60 59 65 67 68 68 68 68 69 69 70 70 71 71 72 69 64 65 66 67 69 70 72 71 69 67 67 67 68 69
62 62 63 63 63 64 63 63 63 60 59 63 62 59 56 56 58 68 66 67 67 68 69 70 70 70 71 71 69 67 62 61 64 67 69 71 71 70 70 69 68 67 68
63 62 61 62 63 63 62 62 63 62 60 59 62 63 60 58 51 54 64 66 67 68 68 69 70 69 69 69 65 61 59 60 63 67 69 70 70 72 71 70 69 68 66
63 62 62 61 61 62 62 61 62 61 62 59 59 58 56 55 57 50 50 58 63 69 69 69 69 69 69 68 67 60 58 63 64 66 69 71 72 71 71 71 70 69 65
63 62 61 60 61 61 61 61 61 61 60 60 60 59 54 52 51 50 50 53 54 64 68 69 68 68 67 65 62 56 57 61 65 66 67 69 69 70 70 69 67 66 65
63 62 60 59 59 60 61 61 57 57 58 58 57 57 58 56 54 52 51 51 51 61 65 70 68 67 66 66 63 55 54 57 60 63 62 65 65 66 66 67 67 65 65
63 63 62 61 61 61 61 60 59 57 58 56 56 57 56 57 57 55 52 50 49 58 62 64 68 66 64 63 59 56 60 56 57 58 60 59 59 61 61 62 64 64 64
61 61 61 60 60 59 59 58 58 58 59 56 55 56 57 59 58 58 56 54 50 49 55 62 60 64 65 64 57 64 61 53 55 55 55 56 56 57 58 59 60 60 60
60 60 60 60 59 58 58 57 58 59 59 58 56 55 56 58 58 58 56 57 55 51 49 61 60 60 64 64 59 62 60 55 54 55 55 54 55 55 56 57 57 58 58
60 60 59 59 58 57 58 57 57 57 56 57 58 55 53 55 56 56 57 57 56 55 50 57 59 60 58 57 62 62 60 61 58 54 55 54 54 54 54 54 54 54 54
61 60 59 58 57 57 57 56 55 56 55 55 57 56 54 55 54 54 54 53 52 53 50 47 53 54 56 59 60 58 58 59 59 52 53 53 53 53 53 52 52 51 51
59 60 58 57 57 57 56 56 56 55 56 56 56 56 56 56 54 54 54 53 54 53 52 49 49 53 54 56 56 57 54 54 56 50 51 51 52 52 52 52 51 50 49
58 58 58 57 56 56 55 55 55 55 56 56 56 55 56 56 56 56 56 57 56 53 52 50 49 50 52 56 54 51 52 54 53 52 49 49 49 50 51 50 49 48 48
57 57 57 57 56 55 55 55 55 54 54 55 55 55 55 53 48 50 53 54 55 53 52 50 49 49 48 48 48 50 50 53 51 49 50 50 50 50 47 48 47 48 47
55 55 55 55 55 55 51 49 50 54 54 53 53 54 55 49 49 48 49 48 50 49 51 50 48 45 46 48 47 44 45 47 47 48 47 49 49 50 48 48 44 46 48
54 53 54 54 54 54 50 49 48 52 53 53 53 53 53 53 50 52 51 48 48 48 48 50 47 50 49 49 47 44 44 46 47 48 45 45 47 46 46 47 43 45 46
52 53 53 53 52 53 49 48 47 51 52 53 53 53 52 52 53 51 51 50 51 51 50 50 49 50 51 50 46 44 46 46 45 45 44 41 45 45 46 46 42 45 44
51 52 52 51 51 52 48 46 47 50 51 51 53 53 52 51 50 48 47 47 48 49 49 45 45 45 44 44 45 45 41 40 41 43 42 42 43 43 42 44 46 44 42
49 49 49 50 49 49 48 46 46 49 48 50 52 52 47 48 49 47 47 47 46 48 49 47 46 45 44 43 42 44 44 38 39 39 42 38 39 39 37 42 43 43 42

GFSMA_sfc_temp_189.txt.gz
Temp
72 73 73 73 73 73 73 72 72 72 72 74 74 74 74 75 76 77 77 69 69 71 72 72 73 74 74 74 75 74 73 73 73 73 72 72 73 73 73 74 74 73 74
70 70 70 71 71 72 71 71 70 70 70 72 72 73 73 73 74 74 75 75 69 69 71 72 72 72 73 74 74 74 74 74 72 73 72 72 72 72 73 73 73 73 73
68 68 68 68 70 70 69 69 70 70 69 71 70 71 71 72 72 72 72 73 73 68 68 70 71 71 71 72 73 73 74 73 73 73 72 72 72 72 72 72 73 73 73
69 67 67 67 68 67 68 67 67 67 67 67 68 69 70 71 71 71 71 71 71 72 71 69 69 69 69 70 71 72 72 72 72 73 73 72 71 71 72 72 72 72 73
68 67 67 67 67 66 66 67 66 66 65 66 66 68 68 69 69 70 70 70 70 70 70 69 66 66 67 68 70 71 71 71 71 71 72 72 72 71 71 72 72 72 72
67 66 66 67 67 66 67 66 65 66 65 65 66 67 67 67 68 68 68 70 70 69 69 69 69 70 65 68 69 70 70 70 70 70 70 71 71 72 71 70 71 72 72
66 65 66 66 67 66 66 66 65 64 64 65 63 63 66 67 66 67 68 68 69 69 69 69 69 70 70 68 69 69 69 69 68 68 69 70 70 71 72 71 69 69 72
65 65 65 64 65 65 65 65 63 61 63 65 59 60 59 63 66 67 68 67 68 68 69 69 69 69 69 69 67 66 63 64 66 67 67 69 70 71 72 72 65 65 65
64 63 63 62 63 62 60 60 60 58 58 62 63 58 54 54 55 66 67 67 67 68 68 69 69 69 69 68 67 63 59 61 67 67 67 68 69 70 71 70 70 68 66
64 64 62 62 61 61 60 59 61 59 59 57 61 64 59 56 51 51 61 64 64 67 67 68 68 68 68 66 62 57 58 61 66 68 69 69 70 70 71 70 70 69 69
65 64 62 60 59 60 59 59 59 59 60 58 59 58 58 56 55 50 49 54 60 63 67 67 67 67 67 65 62 58 57 61 65 67 68 69 67 69 71 71 70 69 67
65 64 62 61 60 59 59 58 59 59 58 57 58 57 55 52 52 50 49 51 53 60 64 68 67 66 65 65 60 55 56 58 61 64 66 65 64 68 71 70 70 68 66
64 64 63 61 61 60 60 59 58 58 57 55 55 55 56 55 55 53 51 51 52 57 62 66 64 65 65 63 61 54 54 56 58 61 63 63 61 62 64 68 67 65 65
64 65 64 63 63 62 61 60 59 58 57 56 55 54 54 55 56 55 52 51 50 54 59 61 64 62 64 63 58 55 58 55 56 57 59 59 58 59 59 61 63 64 64
64 64 63 62 62 61 61 59 58 58 58 58 57 55 54 56 56 56 55 55 51 47 51 58 59 62 61 62 55 61 59 53 55 56 56 56 56 57 58 58 60 60 60
63 62 62 62 61 61 60 59 58 58 58 58 58 56 55 55 56 56 54 54 54 51 47 57 58 60 61 61 58 61 59 53 54 55 55 54 55 55 56 57 57 57 58
62 62 62 61 61 60 60 58 57 58 57 57 57 56 55 55 53 54 54 54 53 52 48 52 55 57 56 56 59 59 58 58 53 54 55 55 54 54 54 53 54 54 54
62 62 62 61 60 60 59 58 56 57 56 56 56 56 56 57 55 55 54 53 52 52 49 46 51 52 53 55 55 56 57 59 56 52 53 53 53 53 53 52 52 51 51
61 61 61 59 59 59 58 58 57 56 56 56 56 56 56 56 55 54 54 53 53 54 52 49 49 53 53 54 54 54 53 53 55 51 52 52 52 52 52 52 51 50 49
59 60 60 60 58 58 58 57 57 56 56 56 56 56 56 56 55 55 55 55 55 53 52 50 50 50 51 53 51 50 49 51 51 53 49 48 50 50 51 51 49 48 48
58 58 58 58 58 57 57 56 55 54 54 54 55 56 55 53 50 50 52 52 53 51 51 49 48 49 48 48 46 47 46 49 49 46 47 48 47 48 47 49 47 48 47
56 56 56 56 55 57 54 51 51 52 54 53 52 54 55 50 50 49 49 48 49 48 47 47 47 46 46 46 47 45 44 42 43 45 43 43 45 45 46 47 46 47 48
55 54 54 55 54 55 52 51 49 51 51 52 52 53 53 55 51 52 51 49 48 48 49 47 45 46 46 47 45 43 43 41 42 42 40 39 42 40 43 46 45 45 47
53 53 53 53 53 53 51 50 49 49 49 51 52 52 52 52 52 51 50 49 49 50 48 48 47 47 48 47 45 45 43 41 40 41 39 34 39 38 39 40 44 45 46
51 51 52 52 51 52 50 48 48 48 48 49 51 52 52 51 51 50 47 45 46 47 50 48 48 47 46 45 44 42 37 35 35 37 37 36 36 36 36 37 41 45 43
49 50 49 50 50 50 49 48 47 47 46 48 50 51 49 50 50 49 46 45 43 45 47 46 42 43 44 43 45 40 39 34 33 32 36 33 33 33 29 35 37 39 39

GFSMA_sfc_temp_192.txt.gz
Temp
58 59 59 59 59 60 59 59 59 60 61 62 63 64 64 63 64 64 63 66 70 71 73 74 74 73 73 74 74 74 74 74 73 72 72 72 72 72 73 73 74 74 74
58 58 58 59 59 59 59 59 59 59 59 61 61 63 63 63 63 64 63 63 68 69 71 73 73 73 72 73 73 73 73 73 74 73 73 72 71 72 72 73 73 73 73
59 58 57 57 58 58 59 58 59 59 58 61 59 61 62 62 62 63 63 62 63 65 68 71 72 72 71 71 72 72 72 72 72 72 72 73 72 71 71 72 72 72 73
60 57 56 57 58 58 57 57 57 56 56 56 56 58 58 60 61 62 62 62 62 63 65 68 70 70 70 70 71 72 72 71 71 71 71 71 72 72 72 71 72 72 73
61 57 56 57 58 57 57 57 57 55 54 55 57 57 57 57 59 64 61 62 62 62 61 65 66 66 68 69 71 72 71 71 70 70 70 70 71 71 72 72 71 71 72
60 57 57 57 58 57 56 57 56 56 55 54 61 59 56 57 58 57 59 63 61 62 61 62 60 62 65 69 70 71 70 69 68 68 69 69 69 70 71 71 72 72 71
59 57 56 56 57 56 56 57 56 54 55 54 52 54 54 57 57 57 58 58 60 62 61 61 60 60 61 66 67 65 65 66 67 70 70 69 68 70 71 71 72 72 70
58 58 55 55 56 58 57 60 59 56 53 54 50 49 47 52 54 58 57 59 58 59 61 63 62 62 60 60 60 61 61 63 67 69 69 69 70 70 70 70 72 72 71
58 57 56 58 59 59 57 58 57 57 54 52 53 50 44 43 47 54 54 56 58 57 58 60 62 62 61 58 58 56 60 62 67 68 69 69 69 69 70 71 71 70 68
57 58 57 59 59 59 58 57 59 56 56 53 52 61 56 54 44 43 50 52 56 57 57 58 59 60 60 58 57 56 58 60 64 67 69 69 68 68 69 72 72 70 69
58 58 57 55 57 58 57 57 56 56 56 54 54 55 55 53 53 49 45 47 52 55 57 60 58 58 59 60 57 54 57 59 62 65 66 66 66 66 69 71 71 69 69
56 57 56 54 54 55 57 57 56 56 56 55 54 54 52 50 50 49 48 50 51 50 56 57 62 61 57 60 58 54 56 58 59 62 65 65 63 65 66 70 71 69 68
54 54 55 53 53 56 58 58 57 55 55 50 52 53 54 53 53 52 50 49 50 49 51 55 60 60 61 59 55 52 55 57 58 59 62 62 61 61 62 66 68 65 66
54 56 56 56 55 55 54 56 56 55 55 51 51 52 52 53 54 53 51 49 47 46 48 50 59 58 58 58 55 55 52 55 56 57 58 59 59 59 60 61 62 63 62
57 55 55 54 54 54 54 53 51 50 50 50 50 50 50 53 54 54 53 52 49 46 46 48 50 56 58 57 54 58 53 54 56 56 56 56 56 57 58 59 59 60 60
54 54 54 54 54 54 53 52 50 51 50 50 52 49 49 50 53 53 53 53 51 48 45 49 48 50 55 58 57 58 55 51 54 55 56 55 55 55 55 55 56 56 57
53 54 54 54 54 53 53 51 50 50 50 50 50 50 49 50 48 50 52 52 51 50 46 49 50 55 53 52 52 56 56 53 50 54 54 55 54 54 53 53 53 53 53
53 53 54 54 53 53 52 51 49 51 49 49 49 49 49 53 47 48 49 51 51 51 48 46 51 51 53 55 54 53 56 57 52 52 53 54 54 53 53 52 52 51 51
52 52 53 52 52 52 51 51 50 50 49 49 49 49 49 49 47 46 46 46 46 49 46 44 42 45 47 51 52 52 52 51 54 51 52 52 52 52 52 52 51 50 49
50 50 51 52 52 52 52 51 51 49 48 49 50 49 49 49 48 47 48 46 48 46 44 43 42 42 44 47 47 44 47 49 49 52 49 49 50 50 51 50 49 48 48
50 50 50 50 50 51 52 49 49 48 47 47 48 49 49 48 49 49 48 45 45 44 43 43 42 42 41 41 40 42 44 45 45 46 44 44 43 47 47 48 47 48 47
47 48 47 48 47 52 52 52 50 46 47 46 45 47 48 48 48 50 51 49 47 42 41 40 40 40 40 40 40 40 42 40 36 43 38 38 41 41 44 45 48 48 47
45 45 45 46 46 46 51 52 50 46 45 44 45 46 47 51 48 47 49 49 48 48 48 44 41 41 40 41 40 38 37 36 37 42 36 34 37 36 39 44 47 47 47
43 43 44 44 44 47 50 50 50 45 43 43 44 45 44 45 46 46 45 43 43 44 45 45 44 44 42 42 40 39 37 37 35 37 36 30 33 33 36 37 46 46 46
41 41 44 43 42 44 48 49 47 42 42 41 44 44 44 44 47 49 44 41 41 42 47 48 47 47 48 47 43 37 35 36 32 32 33 32 32 32 32 33 37 45 46
43 44 43 43 45 43 46 48 47 42 40 42 42 44 47 46 48 49 43 40 39 40 40 41 40 43 44 42 46 37 35 31 28 27 31 30 29 30 26 31 33 35 36